ENT4WJ LGKO-EPKT

Flight info

Callsign ENT4WJ
Flight time 2h 21m
Altitude 36000
Route LARKI UL609 MES DCT ATFIR N133 USALI DCT LOMOS DCT BUDOP DCT PITOK DCT REDSI DCT MEBAN
Aircraft B738/M-SDE2E3FGHIRWXY/LB1

Departure

Time 2026-05-06 14:13
Airport Kos International Airport "Ippokratis" (LGKO)

Arrival

Time 2026-05-06 16:34
Airport Katowice Wojciech Korfanty International Airport (EPKT)
Time Latitude Longitude Altitude Speed Heading
2026-05-06 13:52 36.80137 27.08922 418 ft 0 kts 30°
2026-05-06 14:05 36.80131 27.08918 417 ft 2 kts 30°
2026-05-06 14:05 36.80118 27.08909 417 ft 2 kts 30°
2026-05-06 14:05 36.80105 27.08900 417 ft 2 kts 31°
2026-05-06 14:05 36.80096 27.08885 416 ft 2 kts 72°
2026-05-06 14:06 36.80094 27.08866 416 ft 2 kts 105°
2026-05-06 14:06 36.80102 27.08850 416 ft 2 kts 136°
2026-05-06 14:06 36.80108 27.08844 416 ft 1 kts 153°
2026-05-06 14:06 36.80111 27.08842 416 ft 0 kts 148°
2026-05-06 14:08 36.80084 27.08863 415 ft 7 kts 148°
2026-05-06 14:08 36.80035 27.08902 414 ft 9 kts 148°
2026-05-06 14:09 36.79971 27.08952 413 ft 12 kts 148°
2026-05-06 14:09 36.79885 27.08981 410 ft 14 kts 175°
2026-05-06 14:09 36.79771 27.08982 406 ft 18 kts 181°
2026-05-06 14:09 36.79630 27.08993 400 ft 23 kts 165°
2026-05-06 14:10 36.79454 27.09116 392 ft 31 kts 148°
2026-05-06 14:10 36.79265 27.09257 387 ft 31 kts 146°
2026-05-06 14:10 36.79084 27.09403 382 ft 31 kts 148°
2026-05-06 14:10 36.78894 27.09550 376 ft 32 kts 147°
2026-05-06 14:11 36.78721 27.09685 368 ft 23 kts 148°
2026-05-06 14:11 36.78624 27.09759 362 ft 12 kts 156°
2026-05-06 14:11 36.78555 27.09774 357 ft 4 kts 130°
2026-05-06 14:11 36.78561 27.09822 357 ft 7 kts 34°
2026-05-06 14:12 36.78604 27.09791 360 ft 9 kts 300°
2026-05-06 14:12 36.78772 27.09644 371 ft 63 kts 326°
2026-05-06 14:12 36.79355 27.09189 389 ft 133 kts 327°
2026-05-06 14:12 36.80260 27.08445 684 ft 167 kts 323°
2026-05-06 14:13 36.81189 27.07611 1527 ft 166 kts 321°
2026-05-06 14:13 36.81847 27.06413 2022 ft 182 kts 284°
2026-05-06 14:13 36.81745 27.04779 2502 ft 201 kts 259°
2026-05-06 14:13 36.81556 27.02969 2904 ft 217 kts 284°
2026-05-06 14:14 36.82270 27.01334 3422 ft 224 kts 322°
2026-05-06 14:14 36.83629 27.00296 4055 ft 235 kts 331°
2026-05-06 14:14 36.84863 26.98902 4617 ft 254 kts 307°
2026-05-06 14:14 36.85722 26.96955 5454 ft 260 kts 300°
2026-05-06 14:15 36.86548 26.94935 6300 ft 263 kts 302°
2026-05-06 14:15 36.87456 26.92959 7129 ft 265 kts 305°
2026-05-06 14:15 36.88422 26.91014 7938 ft 269 kts 306°
2026-05-06 14:15 36.89436 26.89021 8765 ft 272 kts 306°
2026-05-06 14:16 36.90444 26.87041 9535 ft 275 kts 306°
2026-05-06 14:16 36.91476 26.85003 10332 ft 278 kts 306°
2026-05-06 14:16 36.92533 26.82912 10803 ft 292 kts 305°
2026-05-06 14:16 36.93636 26.80732 11270 ft 306 kts 305°
2026-05-06 14:17 36.94944 26.78562 11664 ft 319 kts 318°
2026-05-06 14:17 36.96797 26.77011 12124 ft 329 kts 335°
2026-05-06 14:17 36.98933 26.75913 12841 ft 332 kts 340°
2026-05-06 14:17 37.01126 26.74930 13613 ft 334 kts 340°
2026-05-06 14:18 37.03305 26.73956 14296 ft 338 kts 340°
2026-05-06 14:18 37.05508 26.72943 15029 ft 340 kts 339°
2026-05-06 14:18 37.07764 26.71877 15674 ft 344 kts 339°
2026-05-06 14:18 37.09982 26.70810 16372 ft 346 kts 338°
2026-05-06 14:19 37.12239 26.69714 17009 ft 350 kts 338°
2026-05-06 14:19 37.14524 26.68601 17665 ft 352 kts 338°
2026-05-06 14:19 37.16798 26.67491 18305 ft 355 kts 338°
2026-05-06 14:19 37.19093 26.66371 18960 ft 356 kts 338°
2026-05-06 14:20 37.21414 26.65238 19587 ft 359 kts 338°
2026-05-06 14:20 37.23735 26.64106 20182 ft 361 kts 338°
2026-05-06 14:20 37.26067 26.62968 20796 ft 362 kts 338°
2026-05-06 14:20 37.28420 26.61819 21382 ft 364 kts 338°
2026-05-06 14:21 37.30803 26.60655 21892 ft 368 kts 338°
2026-05-06 14:21 37.33191 26.59488 22506 ft 368 kts 338°
2026-05-06 14:21 37.35582 26.58318 22974 ft 372 kts 338°
2026-05-06 14:21 37.37978 26.57144 23526 ft 373 kts 338°
2026-05-06 14:22 37.40396 26.55959 24033 ft 375 kts 338°
2026-05-06 14:22 37.42813 26.54774 24507 ft 377 kts 338°
2026-05-06 14:22 37.45286 26.53559 24970 ft 380 kts 338°
2026-05-06 14:22 37.47763 26.52344 25469 ft 382 kts 338°
2026-05-06 14:23 37.50219 26.51139 25925 ft 384 kts 337°
2026-05-06 14:23 37.52711 26.49913 26376 ft 386 kts 338°
2026-05-06 14:23 37.55219 26.48678 26842 ft 387 kts 337°
2026-05-06 14:23 37.57746 26.47433 27260 ft 390 kts 337°
2026-05-06 14:24 37.60260 26.46194 27666 ft 392 kts 337°
2026-05-06 14:24 37.62813 26.44935 28060 ft 394 kts 337°
2026-05-06 14:24 37.65389 26.43664 28431 ft 397 kts 337°
2026-05-06 14:24 37.67938 26.42403 28863 ft 398 kts 337°
2026-05-06 14:25 37.70545 26.41111 29256 ft 400 kts 337°
2026-05-06 14:25 37.73147 26.39822 29587 ft 403 kts 336°
2026-05-06 14:25 37.75766 26.38525 29961 ft 405 kts 337°
2026-05-06 14:25 37.78371 26.37235 30358 ft 406 kts 337°
2026-05-06 14:26 37.81010 26.35926 30700 ft 408 kts 337°
2026-05-06 14:26 37.83613 26.34543 31172 ft 407 kts 333°
2026-05-06 14:26 37.86114 26.32921 31774 ft 402 kts 328°
2026-05-06 14:26 37.88478 26.30969 32213 ft 401 kts 323°
2026-05-06 14:27 37.90689 26.28798 32665 ft 400 kts 320°
2026-05-06 14:27 37.92812 26.26529 33158 ft 398 kts 319°
2026-05-06 14:27 37.94897 26.24216 33631 ft 396 kts 318°
2026-05-06 14:27 37.96939 26.21925 34053 ft 395 kts 318°
2026-05-06 14:28 37.98988 26.19628 34384 ft 395 kts 318°
2026-05-06 14:28 38.01063 26.17319 34703 ft 395 kts 319°
2026-05-06 14:28 38.03156 26.14999 35054 ft 393 kts 319°
2026-05-06 14:28 38.05198 26.12741 35326 ft 394 kts 318°
2026-05-06 14:29 38.07281 26.10438 35579 ft 394 kts 319°
2026-05-06 14:29 38.09349 26.08153 35878 ft 393 kts 319°
2026-05-06 14:29 38.11407 26.05878 36046 ft 395 kts 318°
2026-05-06 14:29 38.13489 26.03572 36053 ft 396 kts 318°
2026-05-06 14:30 38.17624 25.98992 36058 ft 393 kts 319°
2026-05-06 14:30 38.21756 25.94411 36057 ft 395 kts 319°
2026-05-06 14:31 38.26076 25.90149 36061 ft 395 kts 327°
2026-05-06 14:31 38.30904 25.86708 36066 ft 395 kts 331°
2026-05-06 14:32 38.35801 25.83614 36067 ft 395 kts 332°
2026-05-06 14:32 38.40760 25.80496 36066 ft 396 kts 332°
2026-05-06 14:33 38.45657 25.77371 36060 ft 396 kts 332°
2026-05-06 14:33 38.50600 25.74185 36053 ft 397 kts 332°
2026-05-06 14:34 38.55533 25.70997 36052 ft 396 kts 332°
2026-05-06 14:34 38.60453 25.67805 36050 ft 396 kts 331°
2026-05-06 14:35 38.65403 25.64583 36047 ft 397 kts 332°
2026-05-06 14:35 38.70311 25.61390 36047 ft 397 kts 332°
2026-05-06 14:36 38.75248 25.58166 36044 ft 397 kts 332°
2026-05-06 14:36 38.80142 25.54966 36043 ft 396 kts 332°
2026-05-06 14:37 38.85083 25.51732 36041 ft 396 kts 332°
2026-05-06 14:37 38.89995 25.48512 36040 ft 397 kts 332°
2026-05-06 14:38 38.94919 25.45281 36042 ft 397 kts 332°
2026-05-06 14:38 38.99826 25.42054 36048 ft 395 kts 332°
2026-05-06 14:39 39.04714 25.38837 36049 ft 395 kts 332°
2026-05-06 14:39 39.09620 25.35601 36050 ft 396 kts 332°
2026-05-06 14:40 39.14457 25.32405 36050 ft 398 kts 331°
2026-05-06 14:40 39.19419 25.29124 36049 ft 398 kts 331°
2026-05-06 14:41 39.24326 25.25875 36050 ft 397 kts 331°
2026-05-06 14:41 39.29242 25.22615 36050 ft 398 kts 331°
2026-05-06 14:42 39.34155 25.19351 36051 ft 397 kts 331°
2026-05-06 14:42 39.39077 25.16072 36051 ft 398 kts 331°
2026-05-06 14:43 39.44020 25.12774 36050 ft 398 kts 331°
2026-05-06 14:43 39.48923 25.09498 36051 ft 397 kts 331°
2026-05-06 14:44 39.53821 25.06220 36054 ft 398 kts 331°
2026-05-06 14:45 39.61228 25.01253 36053 ft 398 kts 331°
2026-05-06 14:45 39.66149 24.97948 36052 ft 398 kts 331°
2026-05-06 14:46 39.71053 24.94650 36051 ft 399 kts 331°
2026-05-06 14:46 39.75981 24.91329 36051 ft 399 kts 331°
2026-05-06 14:47 39.80915 24.88001 36049 ft 399 kts 331°
2026-05-06 14:47 39.85829 24.84681 36049 ft 399 kts 331°
2026-05-06 14:48 39.90766 24.81337 36046 ft 398 kts 331°
2026-05-06 14:48 39.95675 24.78006 36047 ft 399 kts 331°
2026-05-06 14:49 40.00616 24.74648 36046 ft 397 kts 331°
2026-05-06 14:49 40.05508 24.71319 36043 ft 398 kts 331°
2026-05-06 14:50 40.10421 24.67972 36039 ft 399 kts 331°
2026-05-06 14:50 40.15350 24.64607 36039 ft 400 kts 331°
2026-05-06 14:51 40.20267 24.61244 36039 ft 399 kts 331°
2026-05-06 14:51 40.25197 24.57867 36037 ft 400 kts 331°
2026-05-06 14:52 40.30111 24.54497 36038 ft 400 kts 331°
2026-05-06 14:52 40.35069 24.51090 36038 ft 400 kts 331°
2026-05-06 14:53 40.39977 24.47715 36038 ft 400 kts 331°
2026-05-06 14:53 40.44930 24.44302 36035 ft 400 kts 331°
2026-05-06 14:54 40.49829 24.40912 36030 ft 399 kts 331°
2026-05-06 14:54 40.54739 24.37514 36030 ft 401 kts 331°
2026-05-06 14:55 40.59681 24.34090 36028 ft 401 kts 330°
2026-05-06 14:55 40.64606 24.30674 36026 ft 402 kts 330°
2026-05-06 14:56 40.69530 24.27250 36026 ft 401 kts 330°
2026-05-06 14:56 40.74457 24.23818 36025 ft 401 kts 330°
2026-05-06 14:57 40.79406 24.20364 36024 ft 401 kts 330°
2026-05-06 14:57 40.84339 24.16914 36027 ft 402 kts 330°
2026-05-06 14:58 40.89263 24.13469 36020 ft 402 kts 330°
2026-05-06 14:58 40.94206 24.10005 36020 ft 401 kts 330°
2026-05-06 14:59 40.99107 24.06562 36024 ft 402 kts 330°
2026-05-06 14:59 41.04077 24.03065 36027 ft 403 kts 330°
2026-05-06 15:00 41.08997 23.99602 36035 ft 404 kts 330°
2026-05-06 15:00 41.13942 23.96112 36042 ft 404 kts 330°
2026-05-06 15:01 41.18909 23.92598 36053 ft 404 kts 330°
2026-05-06 15:01 41.23860 23.89090 36063 ft 403 kts 330°
2026-05-06 15:02 41.28818 23.85570 36070 ft 404 kts 330°
2026-05-06 15:02 41.33756 23.82059 36071 ft 404 kts 330°
2026-05-06 15:03 41.38815 23.78706 36080 ft 406 kts 336°
2026-05-06 15:03 41.44266 23.76781 36093 ft 411 kts 348°
2026-05-06 15:04 41.49986 23.75870 36090 ft 412 kts 351°
2026-05-06 15:04 41.55696 23.75154 36092 ft 412 kts 351°
2026-05-06 15:05 41.61368 23.74419 36098 ft 413 kts 351°
2026-05-06 15:05 41.67097 23.73636 36104 ft 413 kts 351°
2026-05-06 15:06 41.72808 23.72833 36103 ft 412 kts 351°
2026-05-06 15:06 41.78503 23.72021 36118 ft 413 kts 351°
2026-05-06 15:07 41.84222 23.71202 36116 ft 412 kts 351°
2026-05-06 15:07 41.89927 23.70387 36117 ft 414 kts 351°
2026-05-06 15:08 41.95641 23.69565 36114 ft 412 kts 351°
2026-05-06 15:08 42.01326 23.68746 36105 ft 413 kts 351°
2026-05-06 15:09 42.07073 23.67914 36095 ft 413 kts 351°
2026-05-06 15:09 42.12764 23.67090 36095 ft 413 kts 351°
2026-05-06 15:10 42.18464 23.66264 36096 ft 412 kts 351°
2026-05-06 15:10 42.24181 23.65432 36085 ft 413 kts 351°
2026-05-06 15:11 42.29859 23.64606 36086 ft 413 kts 351°
2026-05-06 15:11 42.35532 23.63447 36075 ft 411 kts 347°
2026-05-06 15:12 42.41112 23.61960 36065 ft 410 kts 346°
2026-05-06 15:12 42.46726 23.60446 36066 ft 412 kts 346°
2026-05-06 15:13 42.52338 23.58985 36064 ft 412 kts 347°
2026-05-06 15:13 42.57972 23.57541 36061 ft 413 kts 347°
2026-05-06 15:14 42.63640 23.56097 36060 ft 413 kts 347°
2026-05-06 15:14 42.69252 23.54668 36052 ft 412 kts 347°
2026-05-06 15:15 42.74884 23.53230 36045 ft 412 kts 347°
2026-05-06 15:15 42.80506 23.51792 36042 ft 413 kts 347°
2026-05-06 15:16 42.86173 23.50340 36053 ft 415 kts 347°
2026-05-06 15:16 42.91833 23.48887 36061 ft 414 kts 347°
2026-05-06 15:17 42.97480 23.47436 36060 ft 414 kts 347°
2026-05-06 15:17 43.03107 23.45987 36059 ft 413 kts 347°
2026-05-06 15:18 43.08779 23.44520 36050 ft 413 kts 347°
2026-05-06 15:18 43.14442 23.43054 36039 ft 415 kts 347°
2026-05-06 15:19 43.20106 23.41588 36019 ft 414 kts 347°
2026-05-06 15:19 43.25755 23.40121 36008 ft 414 kts 347°
2026-05-06 15:20 43.31380 23.38656 35999 ft 415 kts 347°
2026-05-06 15:20 43.37030 23.37184 35996 ft 415 kts 347°
2026-05-06 15:21 43.42700 23.35703 35991 ft 414 kts 347°
2026-05-06 15:21 43.48341 23.34227 35987 ft 414 kts 346°
2026-05-06 15:22 43.53984 23.32750 35978 ft 414 kts 346°
2026-05-06 15:22 43.59671 23.31256 35975 ft 414 kts 346°
2026-05-06 15:23 43.65323 23.29767 35972 ft 415 kts 346°
2026-05-06 15:23 43.70982 23.28275 35967 ft 413 kts 346°
2026-05-06 15:24 43.76620 23.26786 35955 ft 414 kts 346°
2026-05-06 15:24 43.82240 23.25155 35949 ft 411 kts 342°
2026-05-06 15:25 43.87618 23.22590 35952 ft 411 kts 336°
2026-05-06 15:25 43.92882 23.19545 35946 ft 411 kts 334°
2026-05-06 15:26 43.98161 23.16412 35936 ft 412 kts 334°
2026-05-06 15:26 44.03390 23.13324 35934 ft 411 kts 334°
2026-05-06 15:27 44.08657 23.10223 35934 ft 410 kts 334°
2026-05-06 15:27 44.13898 23.07139 35935 ft 410 kts 334°
2026-05-06 15:28 44.19128 23.04057 35936 ft 410 kts 334°
2026-05-06 15:28 44.24394 23.00950 35939 ft 411 kts 334°
2026-05-06 15:29 44.29673 22.97831 35940 ft 412 kts 334°
2026-05-06 15:29 44.34913 22.94729 35943 ft 409 kts 334°
2026-05-06 15:30 44.40140 22.91624 35944 ft 410 kts 334°
2026-05-06 15:30 44.45396 22.88498 35946 ft 410 kts 334°
2026-05-06 15:31 44.50627 22.85381 35946 ft 409 kts 334°
2026-05-06 15:31 44.55848 22.82261 35946 ft 411 kts 334°
2026-05-06 15:32 44.63714 22.77557 35949 ft 410 kts 334°
2026-05-06 15:32 44.68939 22.74421 35953 ft 409 kts 334°
2026-05-06 15:33 44.74173 22.71274 35960 ft 409 kts 334°
2026-05-06 15:33 44.79423 22.68112 35968 ft 411 kts 334°
2026-05-06 15:34 44.84674 22.64944 35973 ft 410 kts 334°
2026-05-06 15:34 44.89882 22.61796 35979 ft 410 kts 334°
2026-05-06 15:35 44.95110 22.58633 35984 ft 410 kts 334°
2026-05-06 15:35 45.00354 22.55449 35989 ft 408 kts 334°
2026-05-06 15:36 45.05564 22.52276 36004 ft 410 kts 334°
2026-05-06 15:36 45.10786 22.49091 36017 ft 411 kts 334°
2026-05-06 15:37 45.16018 22.45894 36019 ft 411 kts 334°
2026-05-06 15:37 45.21269 22.42685 36024 ft 410 kts 334°
2026-05-06 15:38 45.26493 22.39484 36021 ft 410 kts 334°
2026-05-06 15:38 45.31718 22.36272 36007 ft 410 kts 334°
2026-05-06 15:39 45.36964 22.33040 35995 ft 410 kts 333°
2026-05-06 15:39 45.42203 22.29808 35986 ft 412 kts 333°
2026-05-06 15:40 45.47430 22.26576 35972 ft 411 kts 333°
2026-05-06 15:40 45.52663 22.23335 35961 ft 411 kts 333°
2026-05-06 15:41 45.57946 22.20057 35961 ft 412 kts 333°
2026-05-06 15:41 45.63147 22.16819 35962 ft 411 kts 333°
2026-05-06 15:42 45.68398 22.13547 35955 ft 411 kts 333°
2026-05-06 15:42 45.73644 22.10272 35948 ft 413 kts 333°
2026-05-06 15:43 45.78880 22.06997 35937 ft 412 kts 333°
2026-05-06 15:43 45.84138 22.03700 35935 ft 413 kts 333°
2026-05-06 15:44 45.89376 22.00410 35929 ft 412 kts 333°
2026-05-06 15:44 45.94640 21.97097 35926 ft 412 kts 333°
2026-05-06 15:45 45.99880 21.93791 35935 ft 412 kts 333°
2026-05-06 15:45 46.05106 21.90486 35941 ft 413 kts 333°
2026-05-06 15:46 46.10355 21.87159 35944 ft 413 kts 333°
2026-05-06 15:46 46.15626 21.83812 35942 ft 413 kts 333°
2026-05-06 15:47 46.20860 21.80483 35941 ft 412 kts 332°
2026-05-06 15:47 46.26121 21.77129 35941 ft 413 kts 332°
2026-05-06 15:48 46.31367 21.73777 35934 ft 414 kts 332°
2026-05-06 15:48 46.36657 21.70390 35929 ft 413 kts 332°
2026-05-06 15:49 46.41900 21.67027 35926 ft 414 kts 332°
2026-05-06 15:49 46.47161 21.63643 35923 ft 414 kts 332°
2026-05-06 15:50 46.52421 21.60251 35922 ft 415 kts 332°
2026-05-06 15:50 46.57684 21.56853 35919 ft 415 kts 332°
2026-05-06 15:51 46.62973 21.53432 35917 ft 414 kts 332°
2026-05-06 15:51 46.68221 21.50033 35918 ft 415 kts 332°
2026-05-06 15:52 46.73460 21.46594 35920 ft 414 kts 332°
2026-05-06 15:52 46.78708 21.43089 35924 ft 415 kts 331°
2026-05-06 15:53 46.83942 21.39581 35915 ft 415 kts 331°
2026-05-06 15:53 46.89147 21.36094 35911 ft 414 kts 331°
2026-05-06 15:54 46.94385 21.32578 35903 ft 415 kts 330°
2026-05-06 15:54 46.99625 21.29057 35902 ft 415 kts 330°
2026-05-06 15:55 47.04887 21.25514 35898 ft 415 kts 330°
2026-05-06 15:55 47.10122 21.21979 35895 ft 417 kts 330°
2026-05-06 15:56 47.15350 21.18446 35895 ft 416 kts 330°
2026-05-06 15:56 47.20589 21.14899 35891 ft 416 kts 330°
2026-05-06 15:57 47.25842 21.11335 35894 ft 416 kts 330°
2026-05-06 15:57 47.31062 21.07781 35893 ft 415 kts 330°
2026-05-06 15:58 47.36303 21.04207 35885 ft 415 kts 330°
2026-05-06 15:58 47.41556 21.00617 35883 ft 415 kts 330°
2026-05-06 15:59 47.46792 20.97029 35883 ft 415 kts 330°
2026-05-06 15:59 47.51998 20.93458 35879 ft 415 kts 330°
2026-05-06 16:00 47.57231 20.89854 35885 ft 416 kts 330°
2026-05-06 16:00 47.62486 20.86231 35889 ft 415 kts 330°
2026-05-06 16:01 47.67733 20.82609 35888 ft 416 kts 330°
2026-05-06 16:01 47.72955 20.79000 35889 ft 416 kts 330°
2026-05-06 16:02 47.78194 20.75363 35890 ft 414 kts 329°
2026-05-06 16:02 47.83415 20.71721 35891 ft 415 kts 329°
2026-05-06 16:03 47.88631 20.68083 35891 ft 415 kts 330°
2026-05-06 16:03 47.93854 20.64424 35895 ft 418 kts 329°
2026-05-06 16:04 47.99088 20.60756 35895 ft 415 kts 330°
2026-05-06 16:04 48.04319 20.57091 35898 ft 416 kts 329°
2026-05-06 16:05 48.09532 20.53420 35900 ft 415 kts 329°
2026-05-06 16:05 48.14761 20.49728 35896 ft 417 kts 330°
2026-05-06 16:06 48.19999 20.46038 35892 ft 420 kts 329°
2026-05-06 16:06 48.25307 20.42282 35889 ft 421 kts 330°
2026-05-06 16:07 48.30559 20.38550 35888 ft 422 kts 329°
2026-05-06 16:07 48.35807 20.34703 35890 ft 420 kts 327°
2026-05-06 16:08 48.40849 20.30692 35888 ft 418 kts 326°
2026-05-06 16:08 48.45962 20.26562 35889 ft 420 kts 326°
2026-05-06 16:09 48.51113 20.22424 35886 ft 419 kts 326°
2026-05-06 16:09 48.56308 20.18432 35898 ft 423 kts 330°
2026-05-06 16:10 48.61768 20.15058 35907 ft 427 kts 333°
2026-05-06 16:10 48.67305 20.11875 35915 ft 426 kts 333°
2026-05-06 16:11 48.72825 20.08668 35914 ft 425 kts 333°
2026-05-06 16:11 48.78359 20.05399 35919 ft 427 kts 333°
2026-05-06 16:12 48.83880 20.02106 35920 ft 427 kts 332°
2026-05-06 16:12 48.89388 19.98805 35921 ft 430 kts 332°
2026-05-06 16:13 48.94940 19.95471 35921 ft 430 kts 332°
2026-05-06 16:13 49.00480 19.92128 35923 ft 431 kts 333°
2026-05-06 16:14 49.06048 19.88763 35221 ft 437 kts 333°
2026-05-06 16:14 49.08887 19.87038 34051 ft 442 kts 333°
2026-05-06 16:14 49.11690 19.85334 32818 ft 444 kts 333°
2026-05-06 16:15 49.14559 19.83591 31568 ft 446 kts 334°
2026-05-06 16:15 49.16689 19.82296 30678 ft 446 kts 334°
2026-05-06 16:15 49.17980 19.81512 30220 ft 444 kts 334°
2026-05-06 16:15 49.20820 19.79788 29370 ft 445 kts 334°
2026-05-06 16:16 49.23643 19.78071 28682 ft 444 kts 335°
2026-05-06 16:16 49.26424 19.76379 28084 ft 440 kts 335°
2026-05-06 16:16 49.29219 19.74680 27481 ft 427 kts 335°
2026-05-06 16:16 49.31922 19.73038 26911 ft 413 kts 335°
2026-05-06 16:17 49.34542 19.71442 26364 ft 399 kts 335°
2026-05-06 16:17 49.37069 19.69897 25837 ft 387 kts 334°
2026-05-06 16:17 49.39548 19.68379 25316 ft 376 kts 334°
2026-05-06 16:17 49.41927 19.66930 24812 ft 365 kts 335°
2026-05-06 16:18 49.44286 19.65578 24302 ft 360 kts 338°
2026-05-06 16:18 49.46712 19.64555 23800 ft 365 kts 345°
2026-05-06 16:18 49.49256 19.63930 23305 ft 375 kts 349°
2026-05-06 16:18 49.51772 19.63528 22803 ft 370 kts 352°
2026-05-06 16:19 49.54325 19.63209 22295 ft 360 kts 352°
2026-05-06 16:19 49.56778 19.62920 21818 ft 356 kts 352°
2026-05-06 16:19 49.59295 19.62610 21323 ft 366 kts 352°
2026-05-06 16:19 49.61842 19.62272 20815 ft 369 kts 352°
2026-05-06 16:20 49.64386 19.61927 20319 ft 367 kts 352°
2026-05-06 16:20 49.66930 19.61573 19801 ft 365 kts 352°
2026-05-06 16:20 49.69455 19.61217 19298 ft 364 kts 352°
2026-05-06 16:20 49.71948 19.60861 18806 ft 363 kts 352°
2026-05-06 16:21 49.74476 19.60500 18312 ft 361 kts 352°
2026-05-06 16:21 49.76972 19.60147 17812 ft 360 kts 352°
2026-05-06 16:21 49.79458 19.59792 17318 ft 359 kts 352°
2026-05-06 16:21 49.81929 19.59435 16827 ft 358 kts 352°
2026-05-06 16:22 49.84381 19.59079 16336 ft 358 kts 352°
2026-05-06 16:22 49.86871 19.58718 15835 ft 356 kts 352°
2026-05-06 16:22 49.89302 19.58365 15350 ft 355 kts 352°
2026-05-06 16:22 49.91752 19.58010 14829 ft 354 kts 352°
2026-05-06 16:23 49.94224 19.57650 14365 ft 352 kts 352°
2026-05-06 16:23 49.96628 19.57299 13874 ft 351 kts 352°
2026-05-06 16:23 49.99060 19.56943 13376 ft 349 kts 351°
2026-05-06 16:23 50.01452 19.56590 12910 ft 347 kts 352°
2026-05-06 16:24 50.03860 19.56236 12450 ft 346 kts 352°
2026-05-06 16:24 50.06249 19.55887 11936 ft 345 kts 352°
2026-05-06 16:24 50.08640 19.55538 11421 ft 336 kts 352°
2026-05-06 16:24 50.10919 19.55208 10999 ft 324 kts 352°
2026-05-06 16:25 50.13137 19.54886 10576 ft 314 kts 352°
2026-05-06 16:25 50.15275 19.54573 10143 ft 306 kts 352°
2026-05-06 16:25 50.17387 19.54261 9842 ft 302 kts 352°
2026-05-06 16:25 50.19445 19.53956 9712 ft 289 kts 352°
2026-05-06 16:26 50.21404 19.53668 9372 ft 285 kts 352°
2026-05-06 16:26 50.23398 19.53370 8941 ft 291 kts 352°
2026-05-06 16:26 50.25415 19.53067 8559 ft 292 kts 352°
2026-05-06 16:26 50.27409 19.52772 8183 ft 285 kts 352°
2026-05-06 16:27 50.29373 19.52486 7832 ft 279 kts 352°
2026-05-06 16:27 50.31313 19.52202 7544 ft 285 kts 352°
2026-05-06 16:27 50.33302 19.51906 7293 ft 288 kts 352°
2026-05-06 16:27 50.35327 19.51604 6835 ft 293 kts 352°
2026-05-06 16:28 50.37322 19.51240 6494 ft 289 kts 347°
2026-05-06 16:28 50.39194 19.50351 6238 ft 278 kts 328°
2026-05-06 16:28 50.40722 19.48575 5842 ft 272 kts 313°
2026-05-06 16:28 50.42038 19.46481 5516 ft 269 kts 310°
2026-05-06 16:29 50.43346 19.44375 5188 ft 268 kts 311°
2026-05-06 16:29 50.44662 19.42372 4957 ft 262 kts 313°
2026-05-06 16:29 50.45973 19.40451 4738 ft 250 kts 312°
2026-05-06 16:29 50.47096 19.38475 4512 ft 236 kts 300°
2026-05-06 16:30 50.47859 19.36307 4276 ft 222 kts 288°
2026-05-06 16:30 50.48177 19.34808 4058 ft 216 kts 278°
2026-05-06 16:30 50.48348 19.31779 3672 ft 207 kts 261°
2026-05-06 16:30 50.48087 19.29597 3421 ft 197 kts 251°
2026-05-06 16:31 50.47811 19.27486 3136 ft 198 kts 259°
2026-05-06 16:31 50.47701 19.25355 2879 ft 195 kts 263°
2026-05-06 16:31 50.47652 19.23274 2601 ft 191 kts 264°
2026-05-06 16:31 50.47631 19.21307 2375 ft 171 kts 265°
2026-05-06 16:32 50.47624 19.19565 2224 ft 149 kts 265°
2026-05-06 16:32 50.47616 19.17947 1964 ft 147 kts 264°
2026-05-06 16:32 50.47610 19.16339 1795 ft 148 kts 265°
2026-05-06 16:32 50.47607 19.14715 1593 ft 147 kts 265°
2026-05-06 16:33 50.47604 19.13109 1412 ft 149 kts 266°
2026-05-06 16:33 50.47610 19.11490 1201 ft 148 kts 266°
2026-05-06 16:33 50.47598 19.09906 1025 ft 144 kts 267°
2026-05-06 16:34 50.47598 19.07680 978 ft 43 kts 270°
2026-05-06 16:34 50.47597 19.07289 977 ft 30 kts 265°
2026-05-06 16:34 50.47549 19.07033 976 ft 15 kts 246°
2026-05-06 16:34 50.47501 19.06889 975 ft 15 kts 242°
2026-05-06 16:35 50.47451 19.06748 975 ft 13 kts 240°
2026-05-06 16:35 50.47393 19.06637 976 ft 14 kts 203°
2026-05-06 16:35 50.47275 19.06630 977 ft 18 kts 165°
2026-05-06 16:35 50.47239 19.06794 979 ft 16 kts 89°
2026-05-06 16:36 50.47237 19.06961 979 ft 14 kts 90°
2026-05-06 16:36 50.47237 19.07112 981 ft 12 kts 90°
2026-05-06 16:36 50.47237 19.07231 982 ft 10 kts 90°
2026-05-06 16:36 50.47236 19.07335 982 ft 9 kts 90°
2026-05-06 16:37 50.47236 19.07448 982 ft 11 kts 90°
2026-05-06 16:37 50.47236 19.07586 983 ft 14 kts 90°
2026-05-06 16:37 50.47234 19.07743 983 ft 5 kts 100°
2026-05-06 16:37 50.47212 19.07759 983 ft 3 kts 179°
2026-05-06 16:38 50.47174 19.07759 983 ft 8 kts 180°
2026-05-06 16:38 50.47149 19.07760 984 ft 0 kts 180°